When you browse on this site, cookies collect data to enhance your experience and personalize the content and advertising you see.
Visit our Privacy Policy to learn more. By continuing to use the site, you agree to this use of cookies and data.
  • In Germany
  • List of Countries
  • For 7 days
  • Water Temperature
  • Satellite Maps
  • Weather Map
  • Weather Widgets
  • user-avatar
    Login

    Hourly Weather Salta

    Today, 19 June, Wednesday

    Time Temperature Precipitation Wind Pressure Humidity
    00:00 +6°C° 0 mm 1 mps 652 mmHg 65%
    01:00 +6°C° 0 mm 1 mps 652 mmHg 67%
    02:00 +6°C° 0 mm 1 mps 652 mmHg 69%
    03:00 +6°C° 0 mm 1 mps 652 mmHg 68%
    04:00 +6°C° 0 mm 1 mps 652 mmHg 67%
    05:00 +6°C° 0 mm 1 mps 652 mmHg 66%
    06:00 +7°C° 0 mm 1 mps 652 mmHg 60%
    07:00 +8°C° 0 mm 1 mps 653 mmHg 55%
    08:00 +9°C° 0 mm 1 mps 654 mmHg 50%
    09:00 +12°C° 0 mm 1 mps 655 mmHg 42%
    10:00 +15°C° 0 mm 1 mps 656 mmHg 35%
    11:00 +20°C° 0 mm 1 mps 657 mmHg 27%
    12:00 +21°C° 0 mm 1 mps 657 mmHg 25%
    13:00 +22°C° 0 mm 1 mps 656 mmHg 22%
    14:00 +23°C° 0 mm 1 mps 656 mmHg 20%
    15:00 +22°C° 0 mm 1 mps 656 mmHg 24%
    16:00 +20°C° 0 mm 1 mps 655 mmHg 28%
    17:00 +19°C° 0 mm 1 mps 654 mmHg 32%
    18:00 +16°C° 0 mm 1 mps 654 mmHg 35%
    19:00 +13°C° 0 mm 1 mps 654 mmHg 38%
    20:00 +10°C° 0 mm 0 mps 654 mmHg 41%
    21:00 +10°C° 0 mm 0 mps 654 mmHg 43%
    22:00 +9°C° 0 mm 0 mps 654 mmHg 46%
    23:00 +8°C° 0 mm 0 mps 654 mmHg 48%

    Tomorrow, 20 June, Thursday

    Time Temperature Precipitation Wind Pressure Humidity
    00:00 +8°C° 0 mm 0 mps 653 mmHg 49%
    01:00 +7°C° 0 mm 0 mps 653 mmHg 50%
    02:00 +7°C° 0 mm 0 mps 653 mmHg 51%
    03:00 +7°C° 0 mm 0 mps 653 mmHg 51%
    04:00 +7°C° 0 mm 0 mps 652 mmHg 51%
    05:00 +7°C° 0 mm 0 mps 652 mmHg 51%
    06:00 +8°C° 0 mm 0 mps 653 mmHg 49%
    07:00 +8°C° 0 mm 0 mps 654 mmHg 47%
    08:00 +9°C° 0 mm 0 mps 654 mmHg 45%
    09:00 +13°C° 0 mm 1 mps 655 mmHg 41%
    10:00 +16°C° 0 mm 1 mps 656 mmHg 36%
    11:00 +19°C° 0 mm 1 mps 656 mmHg 31%
    12:00 +19°C° 0 mm 2 mps 656 mmHg 31%
    13:00 +20°C° 0 mm 2 mps 655 mmHg 32%
    14:00 +20°C° 0 mm 2 mps 655 mmHg 32%
    15:00 +19°C° 0 mm 2 mps 654 mmHg 35%
    16:00 +18°C° 0 mm 2 mps 653 mmHg 39%
    17:00 +18°C° 0 mm 1 mps 653 mmHg 43%
    18:00 +15°C° 0 mm 1 mps 652 mmHg 47%
    19:00 +13°C° 0 mm 1 mps 652 mmHg 51%
    20:00 +11°C° 0 mm 1 mps 652 mmHg 55%
    21:00 +11°C° 0 mm 1 mps 652 mmHg 58%
    22:00 +11°C° 0 mm 1 mps 652 mmHg 61%
    23:00 +10°C° 0 mm 1 mps 652 mmHg 64%

    Day after tomorrow, 21 June, Friday

    Time Temperature Precipitation Wind Pressure Humidity
    00:00 +10°C° 0 mm 1 mps 651 mmHg 63%
    01:00 +10°C° 0 mm 1 mps 651 mmHg 63%
    02:00 +10°C° 0 mm 1 mps 651 mmHg 63%
    03:00 +10°C° 0 mm 1 mps 651 mmHg 63%
    04:00 +10°C° 0 mm 1 mps 650 mmHg 63%
    05:00 +10°C° 0 mm 1 mps 650 mmHg 62%
    06:00 +10°C° 0 mm 1 mps 651 mmHg 60%
    07:00 +11°C° 0 mm 1 mps 651 mmHg 58%
    08:00 +12°C° 0 mm 1 mps 652 mmHg 55%
    09:00 +15°C° 0 mm 1 mps 653 mmHg 49%
    10:00 +19°C° 0 mm 1 mps 654 mmHg 43%
    11:00 +23°C° 0 mm 1 mps 654 mmHg 37%
    12:00 +24°C° 0 mm 1 mps 654 mmHg 36%
    13:00 +25°C° 0 mm 2 mps 654 mmHg 35%
    14:00 +25°C° 0 mm 2 mps 653 mmHg 34%
    15:00 +24°C° 0 mm 2 mps 653 mmHg 41%
    16:00 +23°C° 0 mm 2 mps 653 mmHg 48%
    17:00 +21°C° 0 mm 1 mps 652 mmHg 55%
    18:00 +19°C° 0 mm 1 mps 652 mmHg 61%
    19:00 +16°C° 0 mm 1 mps 652 mmHg 67%
    20:00 +14°C° 0 mm 1 mps 652 mmHg 73%
    21:00 +14°C° 0 mm 1 mps 652 mmHg 75%
    22:00 +14°C° 0 mm 1 mps 652 mmHg 74%
    23:00 +14°C° 0 mm 1 mps 652 mmHg 73%

    22 June, Saturday

    Time Temperature Precipitation Wind Pressure Humidity
    00:00 +14°C° 0 mm 1 mps 652 mmHg 73%
    01:00 +13°C° 0 mm 1 mps 652 mmHg 73%
    02:00 +13°C° 0 mm 1 mps 652 mmHg 73%
    03:00 +13°C° 0 mm 1 mps 652 mmHg 72%
    04:00 +13°C° 0 mm 1 mps 652 mmHg 71%
    05:00 +13°C° 0 mm 1 mps 652 mmHg 71%
    06:00 +13°C° 0 mm 1 mps 652 mmHg 68%
    07:00 +14°C° 0 mm 1 mps 653 mmHg 65%
    08:00 +15°C° 0 mm 1 mps 653 mmHg 63%
    09:00 +19°C° 0 mm 1 mps 654 mmHg 58%
    10:00 +22°C° 0 mm 1 mps 655 mmHg 53%
    11:00 +25°C° 0 mm 1 mps 656 mmHg 47%
    12:00 +25°C° 0 mm 1 mps 655 mmHg 46%
    13:00 +26°C° 0 mm 1 mps 655 mmHg 45%
    14:00 +27°C° 0 mm 2 mps 654 mmHg 43%
    15:00 +25°C° 0 mm 2 mps 654 mmHg 48%
    16:00 +24°C° 0 mm 2 mps 653 mmHg 54%
    17:00 +23°C° 0 mm 2 mps 653 mmHg 59%
    18:00 +21°C° 0 mm 1 mps 653 mmHg 67%
    19:00 +19°C° 0 mm 1 mps 652 mmHg 74%
    20:00 +15°C° 0 mm 0 mps 652 mmHg 82%
    21:00 +15°C° 0 mm 0 mps 652 mmHg 82%
    22:00 +14°C° 0 mm 0 mps 652 mmHg 81%
    23:00 +14°C° 0 mm 0 mps 652 mmHg 81%

    23 June, Sunday

    Time Temperature Precipitation Wind Pressure Humidity
    00:00 +15°C° 0 mm 1 mps 652 mmHg 79%
    01:00 +15°C° 0 mm 1 mps 651 mmHg 77%
    02:00 +15°C° 0 mm 1 mps 651 mmHg 76%
    03:00 +15°C° 0 mm 1 mps 651 mmHg 74%
    04:00 +14°C° 0 mm 1 mps 650 mmHg 72%
    05:00 +14°C° 0 mm 1 mps 650 mmHg 70%
    06:00 +15°C° 0 mm 1 mps 650 mmHg 67%
    07:00 +15°C° 0 mm 1 mps 651 mmHg 63%
    08:00 +16°C° 0 mm 1 mps 651 mmHg 60%
    09:00 +20°C° 0 mm 1 mps 652 mmHg 54%
    10:00 +23°C° 0 mm 1 mps 653 mmHg 47%
    11:00 +26°C° 0 mm 1 mps 653 mmHg 41%
    12:00 +27°C° 0 mm 1 mps 653 mmHg 39%
    13:00 +28°C° 0 mm 2 mps 652 mmHg 38%
    14:00 +28°C° 0 mm 2 mps 651 mmHg 36%
    15:00 +27°C° 0 mm 2 mps 651 mmHg 42%
    16:00 +26°C° 0 mm 2 mps 650 mmHg 49%
    17:00 +24°C° 0 mm 1 mps 649 mmHg 55%
    18:00 +22°C° 0 mm 1 mps 649 mmHg 62%
    19:00 +20°C° 0 mm 1 mps 648 mmHg 70%
    20:00 +16°C° 0 mm 0 mps 648 mmHg 77%
    21:00 +18°C° 0 mm 1 mps 647 mmHg 76%
    22:00 +18°C° 0 mm 1 mps 647 mmHg 75%
    23:00 +16°C° 0 mm 1 mps 647 mmHg 74%

    24 June, Monday

    Time Temperature Precipitation Wind Pressure Humidity
    00:00 +16°C° 0 mm 1 mps 647 mmHg 71%
    01:00 +16°C° 0 mm 1 mps 646 mmHg 68%
    02:00 +16°C° 0 mm 1 mps 646 mmHg 65%
    03:00 +16°C° 0 mm 1 mps 645 mmHg 64%
    04:00 +16°C° 0 mm 1 mps 645 mmHg 63%
    05:00 +16°C° 0 mm 2 mps 645 mmHg 61%
    06:00 +16°C° 0 mm 2 mps 645 mmHg 57%
    07:00 +17°C° 0 mm 2 mps 645 mmHg 54%
    08:00 +18°C° 0 mm 2 mps 645 mmHg 50%
    09:00 +21°C° 0 mm 2 mps 646 mmHg 43%
    10:00 +25°C° 0 mm 1 mps 646 mmHg 36%
    11:00 +28°C° 0 mm 1 mps 647 mmHg 29%
    12:00 +29°C° 0 mm 1 mps 646 mmHg 28%
    13:00 +30°C° 0 mm 2 mps 646 mmHg 26%
    14:00 +30°C° 0 mm 2 mps 645 mmHg 25%
    15:00 +29°C° 0 mm 2 mps 645 mmHg 31%
    16:00 +27°C° 0 mm 1 mps 645 mmHg 37%
    17:00 +26°C° 0 mm 1 mps 644 mmHg 43%
    18:00 +23°C° 0 mm 1 mps 644 mmHg 49%
    19:00 +21°C° 0 mm 1 mps 644 mmHg 55%
    20:00 +19°C° 0 mm 1 mps 644 mmHg 61%
    21:00 +19°C° 0 mm 1 mps 644 mmHg 60%
    22:00 +18°C° 0 mm 1 mps 644 mmHg 59%
    23:00 +18°C° 0 mm 1 mps 644 mmHg 58%
    Show more